Regional Weather Roundup
Issued by NWS

Home | Current Version | Previous Version | Text Only | Print | Product List | Glossary On
Versions: 1 2 3 4 5 6 7 8 9 10 11 12 13 14 15 16 17 18 19 20 21 22 23 24 25 26 27 28 29 30 31 32 33 34 35 36 37 38 39 40 41 42 43 44 45 46 47 48 49 50
000
ASUS45 KSLC 251110
RWRUT

UTAH REGIONAL WEATHER ROUNDUP
NATIONAL WEATHER SERVICE SALT LAKE CITY UT
500 AM MDT THU MAY 25 2017

UTZ001>011-023>025-251200-

NORTHERN UTAH

CITY           SKY/WX    TMP DP  RH WIND       PRES   REMARKS
BRIGHAM CITY   CLOUDY    51  44  75 S5        29.71F
HILL AFB       CLOUDY    52  37  58 NE8       29.72F
LOGAN          CLOUDY    51  43  74 S12       29.70F
OGDEN          LGT RAIN  51  40  65 N7        29.72R
SALT LAKE CITY CLOUDY    59  40  49 N24       29.70R
TOOELE VALLEY  CLOUDY    57  39  51 N10       29.71R
WENDOVER       NOT AVBL
WEST JORDAN    CLOUDY    56  42  58 N17       29.72R

$$

UTZ011>015-024>027-251200-

CENTRAL/NORTHEAST UTAH

CITY           SKY/WX    TMP DP  RH WIND       PRES   REMARKS
PROVO AIRPORT  CLOUDY    59  39  47 NW22      29.67R
MOAB/CANYONLAN CLOUDY    66  36  32 SW5       29.57F
DELTA          CLOUDY    55  30  38 N9        29.67R
PRICE          CLOUDY    57  37  47 NW7       29.65R
ROOSEVELT      CLOUDY    52  43  71 W7        29.61S
VERNAL         CLOUDY    55  42  61 N8        29.60R

$$

UTZ013>016-019>022-027-251200-

SOUTHERN UTAH

CITY           SKY/WX    TMP DP  RH WIND       PRES   REMARKS
BRYCE CANYON   PTCLDY    37  25  61 W7        29.83F WCI  32
CEDAR CITY     CLEAR     53  31  42 S5        29.70S
MILFORD        CLOUDY    63  32  31 N3        29.64R
ST GEORGE      CLOUDY    73  29  19 NW5       29.57R
HANKSVILLE     CLOUDY    72  23  16 SW3       29.59F
BLANDING       CLEAR     58  24  27 CALM      29.81R

$$

REGIONAL REPORTS     COLORADO/ARIZONA

CITY           SKY/WX    TMP DP  RH WIND       PRES   REMARKS
CRAIG, CO      CLOUDY    60  35  39 SW16G29   29.64F
GRAND JUNCTION PTCLDY    61  34  36 NE5       29.60S
RIFLE, CO      CLOUDY    55  36  48 SE6       29.65R
MONTROSE, CO   CLOUDY    60  27  28 S8        29.70S
CORTEZ, CO     PTCLDY    63  23  21 SW9       29.76S
COLORADO CITY    N/A     55  28  35 E5        29.72S
PAGE, AZ       CLEAR     77  16  10 SW10G20   29.63R
GRAND CANYON   MOCLDY    57  18  21 S10       29.85F
KINGMAN, AZ    CLEAR     73  25  16 SW17      29.66F
FLAGSTAFF, AZ  CLEAR     49  15  25 SW6       29.93S

$$

REGIONAL REPORTS    NEVADA/IDAHO/WYOMING

CITY           SKY/WX    TMP DP  RH WIND       PRES   REMARKS
LAS VEGAS, NV  PTCLDY    80  27  14 S14G20    29.51R
ELY, NY        MOCLDY    45  35  68 W7        29.76F
ELKO, NV       CLOUDY    50  36  58 SW8       29.76R
POCATELLO, ID  PTCLDY    43  27  53 W10       29.73R
BURLEY, ID     PTCLDY    46  28  49 W16G30    29.69R
FORT BRIDGER,  LGT RAIN  41  40  95 NW7       29.82R
EVANSTON, WY   LGT RAIN  41  39  93 NW5       29.79R
ROCK SPRINGS,  LGT RAIN  43  37  79 W13       29.76R
KEMMERER, WY   DRIZZLE   37  34  87 W17G26    29.76R WCI  28

$$



USA.gov is the U.S. government's official web portal to all federal, state and local government web resources and services.